Regional Weather Roundup
Issued by NWS

Home | Current Version | Previous Version | Text Only | Print | Product List | Glossary Off
Versions: 1 2 3 4 5 6 7 8 9 10 11 12 13 14 15 16 17 18 19 20 21 22 23 24 25 26 27 28 29 30 31 32 33 34 35 36 37 38 39 40 41 42 43 44 45 46 47 48

000
ASUS45 KBOU 061707
RWRCO

WEATHER ROUNDUP FOR COLORADO
NATIONAL WEATHER SERVICE DENVER/BOULDER CO
1000 AM MST SAT FEB 06 2016

NOTE: "FAIR" INDICATES FEW OR NO CLOUDS BELOW 12000 FEET WITH NO
SIGNIFICANT WEATHER AND/OR OBSTRUCTIONS TO VISIBILITY.

COZ001>005-013-030-031-061800-
...NORTHWEST COLORADO...

CITY           SKY/WX    TMP DP  RH WIND       PRES   REMARKS
CRAIG          CLOUDY     1  -4  79 W7        30.51R WCI -12
HAYDEN         CLOUDY    12   3  67 E9        30.47F WCI   0
MEEKER         CLOUDY     8   3  80 CALM      30.49F
MOUNT WERNER   NOT AVBL
STEAMBOAT SPGS CLOUDY     5   1  82 CALM      30.46F
WALDEN         CLOUDY    18   9  68 S10       30.38F WCI   6
$$

COZ006>008-011-061800-
...WEST CENTRAL VALLEYS...

CITY           SKY/WX    TMP DP  RH WIND       PRES   REMARKS
GRAND JUNCTION CLOUDY    12  12 100 CALM      30.60S
MONTROSE       CLOUDY    17   6  62 W3        30.58F
EAGLE          SUNNY      3   0  85 CALM      30.60F
RIFLE          CLOUDY    10   4  76 CALM      30.59R
DELTA          CLOUDY    19   9  63 CALM      30.60S
NUCLA          CLOUDY    18   9  68 CALM      30.58S
$$

COZ017>023-064>068-061800-
...SOUTHWEST COLORADO...

CITY           SKY/WX    TMP DP  RH WIND       PRES   REMARKS
DURANGO        CLOUDY    13   6  74 NE7       30.49R WCI   3
CORTEZ         CLOUDY    23   9  55 E3        30.51F
PAGOSA SPRINGS CLOUDY   N/A N/A N/A CALM      30.46S
TELLURIDE      CLOUDY    25  10  54 CALM      30.47R
WOLF CREEK PAS CLOUDY    25   5  42 N5        30.45R WCI  19
$$

COZ009-010-012-014-032>034-037-058>063-061800-
...CENTRAL COLORADO...

CITY           SKY/WX    TMP DP  RH WIND       PRES   REMARKS
ASPEN          CLOUDY    17   7  64 NW3       30.44F
BUENA VISTA    CLOUDY    16   4  59 SE5       30.36S WCI   9
COPPER MTN     CLOUDY    19  12  73 W15       30.38S WCI   5
BERTHOUD PASS  FAIR       9  -2  61 NW47G55   30.24F WCI -18
COTTONWOOD PAS CLOUDY    30   9  40 N5        30.34S WCI  25
GUNNISON       CLOUDY   -15 -29  48 CALM      30.59F
KREMMLING      CLOUDY   N/A N/A N/A CALM      30.54S
LEADVILLE      CLOUDY    22   8  55 NW5       30.37F WCI  16
MONARCH PASS     N/A      9   5  85 MISG      30.44R
SALIDA         NOT AVBL
SUNLIGHT       CLOUDY    21  18  86 CALM        N/A
WILKERSON PASS CLOUDY    23   9  54 N14G23    30.33R WCI  11
$$

COZ069>075-061800-
...SAN LUIS VALLEY/SANGRE DE CRISTO MOUNTAINS...

CITY           SKY/WX    TMP DP  RH WIND       PRES   REMARKS
ALAMOSA        CLOUDY    17   2  51 CALM      30.46R
LA VETA PASS   CLOUDY    16   3  57 MISG      30.29R
SAGUACHE       CLOUDY    19   5  53 SE6       30.45S WCI  11
$$

COZ035-036-038>040-061800-
...NORTHERN COLORADO FRONT RANGE...

CITY           SKY/WX    TMP DP  RH WIND       PRES   REMARKS
DENVER INTL AP CLOUDY    35  17  47 SW17      30.17F WCI  25
DMNS CITY PARK   N/A     41  12  31 S2G15     30.18F
AURORA         PTSUNNY   37  16  41 SW13      30.19F
FRONT RANGE AP PTSUNNY   36  16  44 MISG      30.19F
ERIE MUNI ARPT CLOUDY    30  17  57 N7        30.16F WCI  24
BOULDER MUN AP CLOUDY    32  12  43 N5        30.16S WCI  27
CENTENNIAL     CLOUDY    35  16  45 S7        30.19F WCI  29
BROOMFIELD     MOSUNNY   19  18  93 W10       30.17F WCI   8
FORT COLLINS   CLOUDY    19  12  73 CALM      30.18S
LONGMONT       CLOUDY    29  14  53 N6        30.19S WCI  23
$$

COZ041-046-047-076>085-087-088-061800-
...PIKES PEAK/PALMER DIVIDE AND SOUTHERN FOOTHILLS...

CITY           SKY/WX    TMP DP  RH WIND       PRES   REMARKS
COLO. SPRINGS  CLOUDY    33  12  41 NE6       30.24S WCI  28
A. F. ACADEMY  CLOUDY    32  13  44 S1        30.22F
SCHRIEVER AFB  FAIR      35   8  31 W1        30.25R
ELLICOTT       NOT AVBL
FALCON         CLOUDY    38   6  26 SW5       30.24S
FORT CARSON    CLOUDY    29  13  50 N9        30.23R WCI  21
LIMON          CLOUDY    22   8  55 NW8       30.23S WCI  12
MONUMENT HILL  CLOUDY    32  12  43 SW7       30.24S WCI  26
TRINIDAD       SUNNY     36  15  42 NW6       30.27S
$$

COZ042>045-048>051-090-091-061800-
...NORTHEAST COLORADO...

CITY           SKY/WX    TMP DP  RH WIND       PRES   REMARKS
GREELEY ARPT   CLOUDY    16   9  73 CALM      30.21F
AKRON          CLOUDY    26  10  50 SW13      30.19S WCI  15
BURLINGTON     CLOUDY    32  14  47 SW15      30.23S WCI  22
WRAY           CLOUDY    29  14  53 W8        30.22S WCI  21
STERLING       CLOUDY    18  10  73 SW12      30.20F WCI   5
HOLYOKE        CLOUDY    34  19  55 W12       30.19S WCI  25
FORT MORGAN    CLOUDY    15   7  72 W13       30.21S WCI   1
$$

COZ086-089-092>099-061800-
...SOUTHEAST COLORADO...

CITY           SKY/WX    TMP DP  RH WIND       PRES   REMARKS
PUEBLO         CLOUDY    29  16  58 CALM      30.26S
LA JUNTA       CLOUDY    27  16  63 W3        30.29F
LAMAR          SUNNY     29  17  61 W12       30.30S WCI  19
SPRINGFIELD      N/A     42  14  32 S7        30.28F
$$



USA.gov is the U.S. government's official web portal to all federal, state and local government web resources and services.